This is the latest recevied weather packets stored in our database for station/object W8AN. If no packets are shown the sender has not sent any weather packets the latest 10 day(s).
| Time | Temp. | Humidity | Pressure | Rain* | Wind** | Luminosity | Snow |
|---|---|---|---|---|---|---|---|
| 1778013814 | 10° C | 83% | 4262.8 hPa | 3.05 mm | - | 56 W/m² | - |
| 1778013512 | 10.56° C | 83% | 4262.7 hPa | 3.05 mm | - | 55 W/m² | - |
| 1778013208 | 10.56° C | 82% | 4262.8 hPa | 3.05 mm | - | 57 W/m² | - |
| 1778012904 | 10.56° C | 82% | 4262.7 hPa | 1.78 mm | - | 62 W/m² | - |
| 1778012601 | 10.56° C | 82% | 4262.6 hPa | 3.05 mm | - | 62 W/m² | - |
| 1778012297 | 10.56° C | 82% | 4262.8 hPa | 1.27 mm | - | 69 W/m² | - |
| 1778011995 | 10.56° C | 82% | 4262.8 hPa | 1.78 mm | - | 82 W/m² | - |
| 1778011693 | 10.56° C | 82% | 4262.8 hPa | 1.78 mm | - | 86 W/m² | - |
| 1778011390 | 11.11° C | 82% | 4262.9 hPa | 1.27 mm | - | 78 W/m² | - |
| 1778011085 | 10.56° C | 82% | 4263.2 hPa | 1.27 mm | - | 82 W/m² | - |
| 1778010783 | 11.11° C | 82% | 4263 hPa | 0 mm | - | 63 W/m² | - |
| 1778010480 | 11.11° C | 83% | 4262.8 hPa | 0 mm | - | 132 W/m² | - |
| 1778010177 | 11.11° C | 82% | 4263 hPa | 0 mm | - | 113 W/m² | - |
| 1778009877 | 11.11° C | 82% | 4263.2 hPa | 1.78 mm | - | 106 W/m² | - |
| 1778009575 | 11.11° C | 83% | 4263.4 hPa | 1.78 mm | - | 118 W/m² | - |
| 1778009273 | 11.11° C | 83% | 4263.2 hPa | 0 mm | - | 143 W/m² | - |
| 1778008971 | 11.11° C | 83% | 4263.2 hPa | 0 mm | - | 118 W/m² | - |
| 1778008668 | 11.11° C | 83% | 4263.4 hPa | 1.78 mm | - | 113 W/m² | - |
| 1778008367 | 10.56° C | 82% | 4263.1 hPa | 1.78 mm | - | 129 W/m² | - |
| 1778008063 | 10.56° C | 82% | 4263.4 hPa | 1.27 mm | - | 78 W/m² | - |
| 1778007757 | 10.56° C | 82% | 4263.4 hPa | 1.27 mm | - | 58 W/m² | - |
| 1778007454 | 10.56° C | 82% | 4263.5 hPa | 0 mm | - | 55 W/m² | - |
| 1778007151 | 11.11° C | 82% | 4263.5 hPa | 1.78 mm | - | 61 W/m² | - |
| 1778006847 | 11.11° C | 83% | 4263.5 hPa | 1.78 mm | - | 51 W/m² | - |
| 1778006545 | 11.67° C | 83% | 4263.4 hPa | 1.27 mm | - | 72 W/m² | - |
* Rain latest hour (hover to see other rain measurements)
** Current wind speed in m/s (hover to see current wind gust speed)